Location: Budapest
(47.4979°N, 19.0402°E)
Time: 06:02:10
(UTC+02:00)

Tiangong 2 - Pass Details

Date: 16 October 2017
Orbit: 388 x 391 km, 42.8° (Epoch: 22 October)

Event Time Altitude Azimuth Distance (km) Brightness Sun altitude
Exits shadow 04:31:26 16° 117° (ESE) 1,132 3.9 -26.3°
Drops below altitude 10° 04:32:14 10° 109° (ESE) 1,420 4.6 -26.2°
Sets 04:34:25 0° 100° (E) 2,277 6.0 -25.8°
